Hourly Weather Roundup
Issued by NWS Central Illinois

Home | Current Version | Previous Version | Text Only | Print | Product List | Glossary On
Versions: 1 2 3 4 5 6 7 8 9 10 11 12 13 14 15 16 17 18 19 20 21 22 23 24 25 26 27 28 29 30 31 32 33 34 35 36 37 38 39 40 41 42 43 44 45 46 47 48 49 50
000
NZUS43 KILX 162210
HWRILX

Area Weather Roundup
National Weather Service Lincoln IL
500 PM CDT MON OCT 16 2017

NOTE:  "FAIR" indicates few or no clouds below 12,000 feet, with
       no sigificant weather and/or obstructions to visibility.


CITY           SKY/WX    TMP DP  RH WIND       PRES   REMARKS
Bloomington    SUNNY     62  37  39 W12       30.26F
Champaign      SUNNY     64  35  34 SW9       30.27F
Danville       SUNNY     62  35  36 SW6       30.25S
Decatur        SUNNY     64  35  34 W7        30.27F
Effingham      SUNNY     64  38  38 SW3       30.31F
Flora          SUNNY     64  37  36 CALM      30.31F
Galesburg      SUNNY     63  37  36 SW7       30.25S
Jacksonville   SUNNY     65  35  33 W6        30.27F
Lacon          SUNNY     64  34  33 W8        30.24S
Lawrenceville  SUNNY    N/A N/A N/A CALM      30.31F
Litchfield     SUNNY     64  35  34 SW7       30.29S
$$


CITY           SKY/WX    TMP DP  RH WIND       PRES   REMARKS
Lincoln        SUNNY     65  37  35 W3        30.26F
Macomb         SUNNY     65  36  33 W5        30.27F
Mattoon        SUNNY     62  37  39 SW7       30.28F
Mt Carmel AP   SUNNY     62  35  36 N5        30.31S
Olney-Noble AP SUNNY     63  30  28 N5        30.31F
Paris AP       SUNNY     63  37  38 SW7       30.29F
Peoria         SUNNY     64  33  31 SW10      30.25F
Pontiac        SUNNY     64  35  35 W9        30.25F
Rantoul        SUNNY     64  39  40 SW7       30.26F
Robinson       SUNNY     62  35  37 W6        30.31F
Springfield    SUNNY     67  35  30 W9        30.27F
Taylorville    SUNNY     65  35  33 W7        30.28F
$$

...REGIONAL REPORTS...


CITY           SKY/WX    TMP DP  RH WIND       PRES   REMARKS
Chicago O`Hare SUNNY     62  35  36 W9        30.21F
Kankakee       SUNNY     63  36  36 W9        30.25F
Moline         SUNNY     65  35  33 W7        30.21F
Mount Sterling SUNNY     64  36  35 SW8       30.26F
Mount Vernon   SUNNY     64  36  34 CALM      30.30F HAZE
Pittsfield     SUNNY     66  37  33 SW6       30.28F
Quincy         SUNNY     65  35  33 W8        30.26F
Rockford       SUNNY     61  33  35 SW8       30.22F
$$


CITY           SKY/WX    TMP DP  RH WIND       PRES   REMARKS
Burlington     SUNNY     66  36  32 VRB7      30.23F
Cedar Rapids   SUNNY     66  33  29 SW13      30.19F
Des Moines     SUNNY     68  36  30 S15       30.16F
Kirksville     SUNNY     66  38  35 SW8       30.26F
Ottumwa        SUNNY     67  35  30 SW9       30.21F
St Louis       SUNNY     66  37  34 W8        30.30F
$$


CITY           SKY/WX    TMP DP  RH WIND       PRES   REMARKS
Terre Haute    MOSUNNY   62  34  35 W7        30.30S
Evansville     SUNNY     63  35  35 N9        30.31F
Indianapolis   MOSUNNY   60  36  40 W10       30.29F
Lafayette      SUNNY     61  37  41 W3        30.26F
Madison        MOSUNNY   60  35  39 VRB6      30.18F
Milwaukee      MOSUNNY   62  34  35 W12       30.20S
$$






USA.gov is the U.S. government's official web portal to all federal, state and local government web resources and services.